Regional Weather Roundup
Issued by NWS

Home | Current Version | Previous Version | Graphics & Text | Print | Product List | Glossary On
Versions: 1 2 3 4 5 6 7 8 9 10 11 12 13 14 15 16 17 18 19 20 21 22 23 24 25 26 27 28 29 30 31 32 33 34 35 36 37 38 39 40 41 42 43 44 45 46 47 48 49 50
482
ASUS43 KMKX 290500
RWRWI

WISCONSIN REGIONAL WEATHER ROUNDUP
NATIONAL WEATHER SERVICE MILWAUKEE/SULLIVAN WI
1200 AM CDT THU SEP 29 2016

NOTE: "FAIR" INDICATES FEW OR NO CLOUDS BELOW 12,000 FEET WITH NO
SIGNIFICANT WEATHER AND/OR OBSTRUCTIONS TO VISIBILITY.

WIZ001-002-006>008-014>016-023>028-290600-
NORTHWEST WISCONSIN

CITY           SKY/WX    TMP DP  RH WIND       PRES   REMARKS
SUPERIOR ARPT  CLOUDY    52  51  95 CALM      30.40S
ASHLAND        CLOUDY    51  50  96 N5        30.40R
HAYWARD        CLEAR     46  44  93 N3        30.39R
SIREN          CLEAR     48  47  95 CALM      30.39S
CUMBERLAND     CLEAR     48  45  87 NE6       30.37S
RICE LAKE      CLEAR     49  46  90 N3        30.38S
CHETEK         NOT AVBL
LADYSMITH      PTCLDY    52  50  93 N8        30.37S
EAU CLAIRE     NOT AVBL
MENOMONIE      CLEAR     51  49  92 N5        30.35S
NEW RICHMOND   CLEAR     49  47  96 N5        30.37R
OSCEOLA        CLEAR     48  48 100 CALM      30.40S
$$

WIZ003>005-009-010-017-018-290600-
NORTH CENTRAL WISCONSIN

CITY           SKY/WX    TMP DP  RH WIND       PRES   REMARKS
MANITOWISH WTR NOT AVBL
ARBOR VITAE    MOCLDY    52  49  91 N3        30.36S
WOODRUFF       MOCLDY    52  49  91 N3        30.36S
RHINELANDER    PTCLDY    50  49  96 NE5       30.36R
EAGLE RIVER    CLEAR     50  48  92 CALM      30.35S
LAND O LAKES   PTCLDY    50  49  97 N6        30.38S
PHILLIPS       CLOUDY    52  51  97 N5        30.36S
TOMAHAWK       PTCLDY    49  47  91 N5        30.36R
MEDFORD        MOCLDY    51  51 100 NE9       30.34R
MERRILL        CLEAR     50  50 100 N5        30.34S
$$

WIZ029-030-035-036-043>047-290600-
CENTRAL WISCONSIN

CITY           SKY/WX    TMP DP  RH WIND       PRES   REMARKS
WAUSAU         CLEAR     50  48  93 N6        30.31R
MOSINEE        CLEAR     50  50 100 N10       30.32R
MARSHFIELD     CLEAR     53  49  86 N12       30.31S
STEVENS POINT  CLEAR     49  48  97 N6        30.30S
WAUPACA        CLEAR     55  53  93 N6        30.27S
WAUTOMA        CLEAR     53  50  89 N8        30.27R
WISC RAPIDS    CLEAR     52  50  93 N9        30.31R
CAMP DOUGLAS   NOT AVBL
$$

WIZ011>013-019>022-031-037>040-048>050-290600-
NORTHEAST WISCONSIN

CITY           SKY/WX    TMP DP  RH WIND       PRES   REMARKS
ANTIGO         CLEAR     49  48  95 NE9       30.32S
SHAWANO        CLEAR     55  51  86 NE14      30.29S
OCONTO         NOT AVBL
STURGEON BAY   CLEAR     57  55  93 N14       30.26S
GREEN BAY      CLEAR     53  53 100 N12       30.26S
MANITOWOC      NOT AVBL
APPLETON       CLEAR     52  52 100 N13       30.24S
CLINTONVILLE   CLEAR     52  50  93 N9        30.28R
OSHKOSH        PTCLDY    56  52  86 N14G21    30.24R
$$

WIZ032>034-041-042-053>061-290600-
SOUTHWEST WISCONSIN

CITY           SKY/WX    TMP DP  RH WIND       PRES   REMARKS
LA CROSSE      MOCLDY    57  53  86 N10       30.30R
SPARTA         MOCLDY    53  50  92 N8        30.31R
VIROQUA        CLEAR     51  49  95 N7        30.28S
BOSCOBEL       CLEAR     50  47  89 CALM      30.27R
PRAIRIE DU CHI CLEAR     53  48  84 CALM      30.27R
PLATTEVILLE    CLEAR     50  50 100 N6        30.24R
$$

WIZ056-057-062-063-064-067-068-290600-
SOUTH CENTRAL WISCONSIN

CITY           SKY/WX    TMP DP  RH WIND       PRES   REMARKS
REEDSBURG      NOT AVBL
BARABOO/DELLS  CLEAR     51  48  90 N5        30.25R
LONE ROCK      NOT AVBL
MINERAL POINT  CLEAR     52  50  93 N8        30.24R
MADISON        CLEAR     51  49  92 N9        30.21S
MIDDLETON      CLEAR     54  52  95 N8        30.23R
WATERTOWN      CLEAR     53  53  99 N8        30.19S
MONROE         CLEAR     52  50  93 N12       30.19S
JANESVILLE     CLEAR     55  48  76 N8        30.17R
$$

WIZ051-052-058>065-066-070>072-290600-
SOUTHEAST WISCONSIN

CITY           SKY/WX    TMP DP  RH WIND       PRES   REMARKS
MILWAUKEE      PTCLDY    60  55  83 N20G32    30.14F
WAUKESHA       CLEAR     54  50  87 N8        30.18R
MILWAUKEE/TIMM MOCLDY    57  50  77 N14G20    30.17S
RACINE         MOCLDY    57  53  86 N16G28    30.14S
BURLINGTON     PTCLDY    54  50  87 N9        30.14S
KENOSHA        CLOUDY    60  55  83 N15G23    30.12S
FOND DU LAC    MOCLDY    57  54  89 N13G23    30.23S
SHEBOYGAN      CLEAR     57  53  86 N13G18    30.20S
WEST BEND      CLEAR     55  52  88 N8        30.19S
JUNEAU         CLEAR     53  51  92 N10       30.22S
$$

LSZ147-162-290600-
LAKE SUPERIOR

STATION/POSITION TIME  TEMP    WIND        PRES    WAVE
                       AIR SEA DIR/SP/G            HT/PER
                 (UTC) (F)     (DEG/KT/KT) (MB)    (FT/S)
W MID LAKE BUOY  0350   55 54   20/  4/  6 1028.9R   2/ 6
DEVILS ISLAND    0400   53      10/  3/  4 1029.8R
PORT WING        0240   54      CALM  /  1 1028.4R
SAXON HARBOR     0400   52     180/  1/  2 1028.4S
$$

LMZ867-665-643>646-290600-
LAKE MICHIGAN

STATION/POSITION TIME  TEMP    WIND        PRES    WAVE
                       AIR SEA DIR/SP/G            HT/PER
                 (UTC) (F)     (DEG/KT/KT) (MB)    (FT/S)
CHAMBERS ISLAND  0400   59     350/ 21/ 24 1024.4R
S GREEN BAY BUOY 0430   58 62   20/ 19/ 23 1024.0R
N MID LAKE BUOY  0350   63 66   10/ 19/ 23 1023.7R   3/ 4
NORTHPORT PIER   0300   60      10/ 16/ 19 1024.4R
SISTER BAY       0408   58     360/ 16/ 19   N/A
KEWAUNEE LAKESHO 0400   58     360/  9/ 13 1022.9R
SHEBOYGAN LAKESH 0400   58      10/ 22/ 23 1022.1R
PORT WASHINGTON  0440   59     340/  8/ 14 1022.4R
ATWATER BUOY     0400   57 53  360/ 17/ 23 1020.6R
MILWAUKEE LAKESH 0410   59     360/ 22/ 27   N/A
S MID LAKE BUOY  0350   65 69   40/ 23/ 29 1017.7R   7/ 7
KENOSHA   LAKESH 0400   58     360/ 20/ 24 1019.3R
$$

TC  - TEMPERATURE IN CELSIUS
VSB - VISIBILITY IN STATUTE MILES
WCI - WIND CHILL INDEX
HX  - HEAT INDEX





USA.gov is the U.S. government's official web portal to all federal, state and local government web resources and services.